Regional Weather Roundup
Issued by NWS

Home | Current Version | Previous Version | Text Only | Print | Product List | Glossary On
Versions: 1 2 3 4 5 6 7 8 9 10 11 12 13 14 15 16 17 18 19 20 21 22 23 24 25 26 27 28 29 30 31 32 33 34 35 36 37 38 39 40 41 42 43 44 45 46 47 48 49 50
000
ASUS43 KMPX 062101
RWRMN
WEATHER ROUNDUP FOR MINNESOTA
NATIONAL WEATHER SERVICE TWIN CITIES/CHANHASSEN MN
300 PM CST FRI MAR 06 2015


NOTE: "FAIR" INDICATES FEW OR NO CLOUDS BELOW 12,000 FEET WITH NO
SIGNIFICANT WEATHER AND/OR OBSTRUCTIONS TO VISIBILITY. N/A MEANS
CURRENT SKY AND/OR WEATHER CONDITIONS ARE NOT AVAILABLE.

MNZ060>063-068>070-062200-
   Twin Cities Metro

CITY           SKY/WX    TMP DP  RH WIND       PRES   REMARKS
TWIN CITIES    MOSUNNY   39  17  41 NW12      30.03S
ST PAUL        SUNNY     38  16  40 W14       30.04F
LAKEVILLE      SUNNY     36  21  55 NW13      30.03S
EDEN PRAIRIE   SUNNY     38  18  44 W12       30.03S
SOUTH ST PAUL  SUNNY     38  16  39 NW9G17    30.03S
LAKE ELMO      FAIR      36  21  55 W8        30.03F
$$
MNZ001>005-007-008-013>017-022>024-027-028-062200-
   Northwest Minnesota

CITY           SKY/WX    TMP DP  RH WIND       PRES   REMARKS
BEMIDJI        SUNNY     29  14  54 W10       30.00S WCI  20
HALLOCK        PTSUNNY   34  23  64 SW10      29.99F WCI  26
ROSEAU         SUNNY     30  18  59 SW12G18   29.96F WCI  21
WARROAD        MOSUNNY   30  19  64 SW12      29.96F WCI  21
THIEF RVR FALL SUNNY     30  21  69 W12       30.01F WCI  21
CROOKSTON      MOSUNNY   34  18  51 W6        30.03F WCI  29
FOSSTON        SUNNY     34  16  47 W9        30.03S WCI  26
DETROIT LAKES  MOSUNNY   32  19  59 NW10      30.04S WCI  24
MOORHEAD       MOSUNNY   37  18  44 NW9       30.05F
PARK RAPIDS    SUNNY     32  14  47 W15       29.99F WCI  22
MAHNOMEN       FAIR      30  19  62 NW9       30.02F WCI  22
$$
MNZ006-009>011-018-025>026-062200-
   North Central Minnesota

CITY           SKY/WX    TMP DP  RH WIND       PRES   REMARKS
BAUDETTE       SUNNY     30  12  47 W9        29.94F WCI  22
FLAG ISLAND    CLOUDY    34  10  37 NW9G20    29.91F WCI  26
INTL FALLS     SUNNY     29   9  43 W12G21    29.93F WCI  19
WASKISH        SUNNY     30  18  59 CALM      29.98S
BIG FORK       SUNNY     34   9  35 W10G16    29.96S WCI  26
LONGVILLE      SUNNY     34  10  37 NW8       29.99S WCI  27
GRAND RAPIDS   SUNNY     30  12  47 NW16G22   29.96S WCI  19
CRANE LAKE     SUNNY     28   7  40 NW6       29.94S WCI  22
ORR            SUNNY     30   7  37 NW15      29.91S WCI  19
COOK           SUNNY     30  10  43 W14       29.93S WCI  20
WALKER         FAIR      31  11  42 W9        29.99F WCI  23
$$
MNZ012-019>021-037-062200-
   Northeast Minnesota

CITY           SKY/WX    TMP DP  RH WIND       PRES   REMARKS
DULUTH         SUNNY     32  10  40 W18G26    29.93S WCI  20
ELY            SUNNY     30   7  37 W16       29.89S WCI  19
HIBBING        SUNNY     32   8  36 NW16      29.93S WCI  21
EVELETH        SUNNY     32  12  43 NW16G24   29.93S WCI  21
DULUTH HARBOR  SUNNY     34  16  47 W17       29.97S WCI  23
TWO HARBORS    SUNNY     37  16  41 W10G21    29.90S
SILVER BAY     SUNNY     36   9  32 W8G16     29.89R
GRAND MARAIS     N/A     35   9  33 NW12G20   29.89R WCI  27
G MARAIS ARPRT SUNNY     27   5  39 W12G21    29.82R WCI  16
$$
MNZ029>031-032-039>041-046>048-054>057-064-062200-
   West Central Minnesota

CITY           SKY/WX    TMP DP  RH WIND       PRES   REMARKS
FERGUS FALLS   MOSUNNY   36  16  44 NW13      30.08F
WHEATON        MOSUNNY   34  19  55 W9        30.10F WCI  26
MORRIS         PTSUNNY   32  19  59 W14       30.07F WCI  22
ALEXANDRIA     MOSUNNY   30  16  56 NW12      30.05S WCI  20
ELBOW LAKE     FAIR      32  20  60 NW7       30.06F WCI  26
WADENA         SUNNY     30  16  55 W10       30.02F WCI  21
GLENWOOD       MOSUNNY   30  16  55 W15       30.06S WCI  19
APPLETON       PTSUNNY   36  19  51 NW10      30.10S
BENSON         CLOUDY    34  19  55 NW12      30.09F WCI  25
ORTONVILLE     PTSUNNY   34  18  51 W10       30.10S WCI  26
MADISON        PTSUNNY   36  19  51 NW12      30.10S
WILLMAR        FAIR      34  19  55 NW10G17   30.09S WCI  26
$$
MNZ033>034-036-042>043-049>051-058-059-062200-
   Central Minnesota

CITY           SKY/WX    TMP DP  RH WIND       PRES   REMARKS
ST CLOUD       SUNNY     33  16  49 NW10      30.03S WCI  25
SAUK CENTRE    FAIR      31  15  51 NW12      30.05S WCI  22
PAYNESVILLE    SUNNY     31  17  56 W10       30.06S WCI  22
AITKIN         SUNNY     37  10  32 NW6       29.97F
PINE RIVER     SUNNY     34  14  44 W6        30.02F WCI  29
BRAINERD       SUNNY     33  12  41 W12       30.00F WCI  24
STAPLES        SUNNY     30  14  51 NW12      30.02S WCI  21
LONG PRAIRIE   FAIR      32  16  51 W10       30.04S WCI  24
LITTLE FALLS   SUNNY     32  14  47 W13       30.03S WCI  22
LITCHFIELD     SUNNY     34  18  51 NW10      30.06S WCI  26
BUFFALO        SUNNY     36  17  47 W7        30.05S
MAPLE LAKE     SUNNY     36  19  50 W9        30.05S
$$
MNZ037-044-045-052-053-062200-
   East Central Minnesota

CITY           SKY/WX    TMP DP  RH WIND       PRES   REMARKS
PRINCETON      SUNNY     34  16  47 W12       30.03S WCI  25
MORA           SUNNY     34  14  44 NW9       30.02S WCI  26
CAMBRIDGE      SUNNY     36  19  51 NW6       30.01S
RUSH CITY      SUNNY     33  14  44 NW7       30.02S WCI  27
MOOSE LAKE     SUNNY     34  14  44 NW9G17    29.96S WCI  26
HINCKLEY       FAIR      34  16  47 W8        29.99S WCI  27
CLOQUET        SUNNY     32   9  37 W9G20     29.95S WCI  24
MCGREGOR       SUNNY     32  14  47 NW13      29.98S WCI  22
$$
MNZ071>073-080-081-089-090-097-098-062200-
   Southwest Minnesota

CITY           SKY/WX    TMP DP  RH WIND       PRES   REMARKS
MONTEVIDEO     PTSUNNY   36  19  51 N7        30.10F
GRANITE FALLS  PTSUNNY   35  21  55 NW14      30.11S WCI  26
CANBY          PTSUNNY   36  20  52 W10       30.11S
MARSHALL       PTSUNNY   37  19  48 NW13      30.11
REDWOOD FALLS  FAIR      36  20  52 NW10      30.08F
OLIVIA         MOSUNNY   32  21  64 NW13      30.07F WCI  22
PIPESTONE      MOSUNNY   37  23  56 NW10      30.08F
WINDOM         MOSUNNY   39  25  56 NW10      30.07F
WORTHINGTON    PTSUNNY   37  25  60 W12       30.10S
JACKSON        MOSUNNY   41  23  48 NW10      30.08S
TRACY          PTSUNNY   39  24  55 NW12      30.09S
SLAYTON        PTSUNNY   40  23  51 CALM      30.08F
$$
MNZ065>067-074>077-082>085-091>093-062200-
   South Central Minnesota

CITY           SKY/WX    TMP DP  RH WIND       PRES   REMARKS
MANKATO        SUNNY     39  21  48 NW17G25   30.06S
NEW ULM        SUNNY     37  21  52 NW13      30.07F
ST JAMES       SUNNY     41  23  48 W18       30.09S
FAIRMONT       SUNNY     41  25  52 NW13      30.06S
GLENCOE        SUNNY     37  22  55 NW10G17   30.05S
FARIBAULT      SUNNY     39  25  56 W14       30.04S
OWATONNA       SUNNY     39  25  56 W14       30.04S
WASECA         SUNNY     39  25  56 W18       30.06S
ALBERT LEA     SUNNY     43  25  49 W12       30.05R
$$
MNZ078>079-086>088-094>096-062200-
   Southeast Minnesota

CITY           SKY/WX    TMP DP  RH WIND       PRES   REMARKS
ROCHESTER      SUNNY     32  24  72 SW14      30.04F WCI  22
RED WING       SUNNY     37  19  48 W12G17    30.03S
STANTON        SUNNY     39  24  54 W14       30.02S
DODGE CENTER   SUNNY     37  27  65 W10       30.02F
WINONA         SUNNY     34  19  55 W7        30.07S WCI  28
AUSTIN         SUNNY     37  25  60 SW9       30.04F
PRESTON        SUNNY     32  22  65 SW13      30.05S WCI  23
$$
ABBREVIATIONS USED IN REMARKS
   TC - TEMPERATURES IN CELSIUS
  WCI - WIND CHILL INDEX
   HX - HEAT INDEX
  VSB - VISIBILITY
$$



USA.gov is the U.S. government's official web portal to all federal, state and local government web resources and services.